Columbus, NE

9:13 PM CDT on March 24, 2017 (GMT -0500)
Columbus Municipal

Weather History for KOLU - November, 2012

Change the Weather History Date:

Monday, November 12, 2012

  Actual Average Record
Temperature  
Mean Temperature 30 °F -  
Max Temperature 41 °F 46 °F 71 °F (1954)
Min Temperature 19 °F 25 °F 1 °F (1986)
Degree Days  
Heating Degree Days 35    
Moisture  
Dew Point 14 °F    
Average Humidity 58    
Maximum Humidity 80    
Minimum Humidity 36    
Precipitation  
Precipitation 0.00 in - - ()
Sea Level Pressure  
Sea Level Pressure 30.25 in    
Wind  
Wind Speed 10 mph (West)    
Max Wind Speed 24 mph    
Max Gust Speed 31 mph    
Visibility 10 miles    
Events      
Averages and records for this station are not official NWS values.
T = Trace of Precipitation, MM = Missing Value Source: NWS Daily Summary

Daily Weather History Graph

Daily Weather History Graph

Search for Another Location

Airport or City:

Trip Planner

Search our weather history database for the weather conditions in past years. The results will help you decide how hot, cold, wet, or windy it might be!

Date:

Astronomy

Nov. 12, 2012 Rise Set
Actual Time 7:14 AM CST 5:11 PM CST
Civil Twilight 6:45 AM CST 5:41 PM CST
Nautical Twilight 6:12 AM CST 6:14 PM CST
Astronomical Twilight 5:39 AM CST 6:47 PM CST
Moon 5:41 AM CST (11/12) 4:18 PM CST (11/12)
Length of Visible Light 10h 55m
Length of Day
9h 56m
Waning Crescent, 2% of the Moon is Illuminated
Nov 12
Waning Crescent
Nov 13
New
Nov 20
First Quarter
Nov 28
Full
Dec 6
Last Quarter

Hourly Weather History & Observations

Time (CST) Temp. Windchill Dew Point Humidity Pressure Visibility Wind Dir Wind Speed Gust Speed Precip Events Conditions
12:15 AM 21.2 °F 10.9 °F 10.4 °F 63% 30.17 in 10.0 mi West 9.2 mph - N/A   Clear
12:35 AM 21.2 °F 9.5 °F 10.4 °F 63% 30.17 in 10.0 mi West 11.5 mph - N/A   Clear
12:55 AM 23.0 °F 11.7 °F 12.2 °F 63% 30.18 in 10.0 mi West 11.5 mph - N/A   Clear
1:15 AM 23.0 °F 12.4 °F 10.4 °F 59% 30.18 in 10.0 mi West 10.4 mph - N/A   Clear
1:35 AM 21.2 °F 10.9 °F 10.4 °F 63% 30.18 in 10.0 mi West 9.2 mph - N/A   Clear
1:55 AM 21.2 °F 10.1 °F 10.4 °F 63% 30.18 in 10.0 mi WSW 10.4 mph - N/A   Clear
2:15 AM 21.2 °F 10.9 °F 10.4 °F 63% 30.18 in 10.0 mi West 9.2 mph - N/A   Clear
2:35 AM 23.0 °F 12.4 °F 10.4 °F 59% 30.18 in 10.0 mi West 10.4 mph - N/A   Clear
2:55 AM 23.0 °F 11.1 °F 10.4 °F 59% 30.18 in 10.0 mi West 12.7 mph 17.3 mph N/A   Clear
3:15 AM 23.0 °F 11.7 °F 10.4 °F 59% 30.18 in 10.0 mi West 11.5 mph - N/A   Clear
3:35 AM 23.0 °F 11.7 °F 10.4 °F 59% 30.18 in 10.0 mi West 11.5 mph 18.4 mph N/A   Clear
3:55 AM 21.2 °F 11.7 °F 10.4 °F 63% 30.18 in 10.0 mi West 8.1 mph - N/A   Clear
4:15 AM 21.2 °F 10.1 °F 10.4 °F 63% 30.17 in 10.0 mi WSW 10.4 mph - N/A   Clear
4:35 AM 21.2 °F 10.9 °F 12.2 °F 68% 30.17 in 10.0 mi WSW 9.2 mph - N/A   Clear
4:55 AM 21.2 °F 10.9 °F 10.4 °F 63% 30.17 in 10.0 mi WSW 9.2 mph - N/A   Clear
5:15 AM 21.2 °F 10.9 °F 12.2 °F 68% 30.18 in 10.0 mi WSW 9.2 mph - N/A   Clear
5:35 AM 21.2 °F 10.1 °F 10.4 °F 63% 30.19 in 10.0 mi WSW 10.4 mph - N/A   Clear
5:55 AM 21.2 °F 9.5 °F 10.4 °F 63% 30.18 in 10.0 mi West 11.5 mph - N/A   Clear
6:15 AM 21.2 °F 10.9 °F 10.4 °F 63% 30.19 in 10.0 mi WSW 9.2 mph - N/A   Clear
6:35 AM 21.2 °F 11.7 °F 10.4 °F 63% 30.19 in 10.0 mi WSW 8.1 mph - N/A   Clear
6:55 AM 21.2 °F 12.6 °F 12.2 °F 68% 30.20 in 10.0 mi WSW 6.9 mph - N/A   Clear
7:15 AM 21.2 °F 12.6 °F 12.2 °F 68% 30.20 in 10.0 mi WSW 6.9 mph - N/A   Clear
7:35 AM 21.2 °F 12.6 °F 12.2 °F 68% 30.21 in 10.0 mi WSW 6.9 mph - N/A   Clear
7:55 AM 24.8 °F 16.1 °F 14.0 °F 64% 30.22 in 10.0 mi WSW 8.1 mph - N/A   Clear
8:15 AM 24.8 °F 14.6 °F 14.0 °F 64% 30.23 in 10.0 mi West 10.4 mph - N/A   Clear
8:35 AM 26.6 °F 17.5 °F 14.0 °F 59% 30.23 in 10.0 mi West 9.2 mph - N/A   Clear
8:55 AM 28.4 °F 16.6 °F 14.0 °F 55% 30.24 in 10.0 mi West 16.1 mph 19.6 mph N/A   Clear
9:15 AM 30.2 °F 19.3 °F 14.0 °F 51% 30.25 in 10.0 mi WNW 15.0 mph 18.4 mph N/A   Clear
9:55 AM 32.0 °F 20.5 °F 15.8 °F 51% 30.26 in 10.0 mi WNW 18.4 mph 24.2 mph N/A   Clear
10:15 AM 33.8 °F 22.8 °F 15.8 °F 48% 30.27 in 10.0 mi WNW 18.4 mph 26.5 mph N/A   Clear
10:35 AM 33.8 °F 22.2 °F 15.8 °F 48% 30.27 in 10.0 mi WNW 20.7 mph - N/A   Clear
10:55 AM 35.6 °F 24.0 °F 15.8 °F 44% 30.28 in 10.0 mi WNW 23.0 mph 28.8 mph N/A   Clear
11:15 AM 35.6 °F 24.5 °F 15.8 °F 44% 30.28 in 10.0 mi WNW 20.7 mph 31.1 mph N/A   Clear
11:35 AM 35.6 °F 23.7 °F 15.8 °F 44% 30.28 in 10.0 mi NW 24.2 mph 28.8 mph N/A   Clear
11:55 AM 37.4 °F 26.6 °F 15.8 °F 41% 30.28 in 10.0 mi WNW 21.9 mph 31.1 mph N/A   Clear
12:15 PM 37.4 °F 27.8 °F 15.8 °F 41% 30.27 in 10.0 mi WNW 17.3 mph 24.2 mph N/A   Clear
12:35 PM 37.4 °F 27.5 °F 15.8 °F 41% 30.27 in 10.0 mi WNW 18.4 mph 25.3 mph N/A   Clear
12:55 PM 39.2 °F 29.8 °F 15.8 °F 39% 30.27 in 10.0 mi WNW 18.4 mph 24.2 mph N/A   Clear
1:15 PM 39.2 °F 29.6 °F 15.8 °F 39% 30.27 in 10.0 mi NW 19.6 mph 24.2 mph N/A   Clear
1:35 PM 39.2 °F 31.6 °F 15.8 °F 39% 30.26 in 10.0 mi WNW 12.7 mph - N/A   Clear
1:55 PM 41.0 °F 31.9 °F 15.8 °F 36% 30.26 in 10.0 mi WNW 19.6 mph 24.2 mph N/A   Clear
2:15 PM 41.0 °F 31.9 °F 15.8 °F 36% 30.26 in 10.0 mi WNW 19.6 mph 24.2 mph N/A   Clear
2:35 PM 41.0 °F 31.4 °F 15.8 °F 36% 30.27 in 10.0 mi WNW 21.9 mph 27.6 mph N/A   Clear
2:55 PM 41.0 °F 32.2 °F 15.8 °F 36% 30.27 in 10.0 mi NW 18.4 mph 24.2 mph N/A   Clear
3:15 PM 41.0 °F 32.2 °F 15.8 °F 36% 30.27 in 10.0 mi WNW 18.4 mph 24.2 mph N/A   Clear
3:35 PM 41.0 °F 33.5 °F 15.8 °F 36% 30.28 in 10.0 mi WNW 13.8 mph - N/A   Clear
4:35 PM 39.2 °F 33.6 °F 15.8 °F 39% 30.28 in 10.0 mi NW 8.1 mph - N/A   Clear
4:55 PM 37.4 °F 34.9 °F 15.8 °F 41% 30.29 in 10.0 mi NW 3.5 mph - N/A   Clear
5:15 PM 35.6 °F 32.8 °F 15.8 °F 44% 30.29 in 10.0 mi NW 3.5 mph - N/A   Clear
5:35 PM 33.8 °F 30.8 °F 14.0 °F 44% 30.30 in 10.0 mi NW 3.5 mph - N/A   Clear
5:55 PM 30.2 °F - 15.8 °F 55% 30.30 in 10.0 mi Calm Calm - N/A   Clear
6:15 PM 28.4 °F - 15.8 °F 59% 30.31 in 10.0 mi Calm Calm - N/A   Clear
6:35 PM 28.4 °F - 15.8 °F 59% 30.31 in 10.0 mi Calm Calm - N/A   Clear
6:55 PM 28.4 °F - 17.6 °F 64% 30.31 in 10.0 mi Calm Calm - N/A   Clear
7:15 PM 28.4 °F - 17.6 °F 64% 30.32 in 10.0 mi Calm Calm - N/A   Clear
7:35 PM 26.6 °F - 15.8 °F 64% 30.32 in 10.0 mi Calm Calm - N/A   Clear
7:55 PM 24.8 °F - 15.8 °F 69% 30.32 in 10.0 mi Calm Calm - N/A   Clear
8:35 PM 24.8 °F - 15.8 °F 69% 30.32 in 10.0 mi Calm Calm - N/A   Clear
8:55 PM 24.8 °F - 17.6 °F 74% 30.33 in 10.0 mi Calm Calm - N/A   Clear
9:15 PM 24.8 °F - 15.8 °F 69% 30.33 in 10.0 mi Calm Calm - N/A   Clear
9:35 PM 23.0 °F - 15.8 °F 74% 30.34 in 10.0 mi Calm Calm - N/A   Clear
9:55 PM 23.0 °F - 15.8 °F 74% 30.34 in 10.0 mi Calm Calm - N/A   Clear
10:15 PM 23.0 °F - 15.8 °F 74% 30.34 in 10.0 mi Calm Calm - N/A   Clear
10:35 PM 21.2 °F - 15.8 °F 80% 30.34 in 10.0 mi Calm Calm - N/A   Clear
10:55 PM 21.2 °F - 15.8 °F 80% 30.34 in 10.0 mi Calm Calm - N/A   Clear
11:15 PM 21.2 °F - 15.8 °F 80% 30.34 in 10.0 mi Calm Calm - N/A   Clear
11:35 PM 19.4 °F - 14.0 °F 80% 30.34 in 10.0 mi Calm Calm - N/A   Clear
11:55 PM 21.2 °F - 15.8 °F 80% 30.34 in 10.0 mi Calm Calm - N/A   Clear